Location: Northam
(31.6525°S, 116.6655°E)
Time: 03:55:31
(UTC+08:00)

STARLINK-1876 - Pass Details

Date: 17 January 2021
Orbit: 535 x 537 km, 53.1° (Epoch: 28 February)

Event Time Altitude Azimuth Distance (km) Brightness Sun altitude
Rises 21:32:35 0° 235° (SW) 2,700 8.5 -23.6°
Reaches altitude 10° 21:35:09 10° 246° (WSW) 1,772 7.1 -24.0°
Enters shadow 21:38:15 27° 294° (WNW) 993 5.0 -24.4°
